Date String (YYYY-MM-DD hh:mm:ss) UTC,Instrument flags,Ambient pressure (hPa),Sample flow (lpm),Bypass flow (lpm),Sample temperature (°C),Ambient temperature (°C),ASC tube jacket temperature (°C),LED temperature (°C),Box temperature (°C),Sample RH (%),Span deviation,Mass concentration (μg/m³),Mass concentration (μg/m³),Mass concentration (μg/m³)
DateTimeUTC,F1_M11,P_M11,Q1_M11,Q2_M11,T1_M11,T2_M11,T3_M11,T4_M11,T5_M11,U1_M11,ZSPAN_M11,X0_M11,X2_M11,X1_M11
2022-03-09 10:00:00,,0819.6,5.00,0.00,22.8,22.6,00.0,31.8,24.6,10.1,0000.0,0006.92,0003.97,0003.68
2022-03-09 10:01:00,,0819.5,5.00,0.00,22.8,22.3,00.0,31.8,24.5,10.1,0000.0,0006.86,0003.94,0003.67
2022-03-09 10:02:00,,0819.5,5.00,0.00,22.8,22.1,00.0,31.7,24.4,10.2,0000.0,0006.89,0003.93,0003.67
2022-03-09 10:03:00,,0819.5,5.00,0.00,22.7,21.9,00.0,31.7,24.3,10.2,0000.0,0007.33,0003.96,0003.66
2022-03-09 10:04:00,,0819.5,5.00,0.00,22.6,21.8,00.0,31.7,24.3,10.1,0000.0,0007.20,0003.94,0003.65
2022-03-09 10:05:00,,0819.6,5.02,0.00,22.6,21.7,00.0,31.7,24.2,10.1,0000.0,0007.13,0003.90,0003.62
2022-03-09 10:06:00,,0819.6,4.99,0.00,22.6,21.6,00.0,31.7,24.2,10.1,0000.0,0007.05,0003.83,0003.57
2022-03-09 10:07:00,,0819.6,5.01,0.00,22.5,21.6,00.0,31.6,24.1,10.1,0000.0,0007.10,0003.78,0003.54
2022-03-09 10:08:00,,0819.5,4.99,0.00,22.5,22.1,00.0,31.7,24.2,10.1,0000.0,0007.02,0003.73,0003.50
2022-03-09 10:09:00,,0819.5,5.01,0.00,22.7,22.9,00.0,31.7,24.5,09.9,0000.0,0006.95,0003.69,0003.46
2022-03-09 10:10:00,,0819.6,5.00,0.00,22.8,23.4,00.0,31.7,24.8,09.8,0000.0,0006.40,0003.68,0003.42
2022-03-09 10:11:00,,0819.6,5.01,0.00,22.9,23.3,00.0,31.8,24.8,09.7,0000.0,0006.45,0003.65,0003.38
2022-03-09 10:12:00,,0819.6,5.00,0.00,22.9,23.0,00.0,31.8,24.7,09.6,0000.0,0006.42,0003.65,0003.37
2022-03-09 10:13:00,,0819.5,4.99,0.00,22.8,22.6,00.0,31.8,24.6,09.6,0000.0,0006.37,0003.62,0003.34
2022-03-09 10:14:00,,0819.5,5.00,0.00,22.8,22.3,00.0,31.8,24.5,09.6,0000.0,0005.88,0003.57,0003.31
2022-03-09 10:15:00,,0819.5,4.98,0.00,22.7,22.1,00.0,31.7,24.4,09.6,0000.0,0005.73,0003.58,0003.29
2022-03-09 10:16:00,,0819.6,5.02,0.00,22.7,21.9,00.0,31.7,24.3,09.6,0000.0,0005.72,0003.57,0003.28
2022-03-09 10:17:00,,0819.6,4.99,0.00,22.6,21.8,00.0,31.7,24.2,09.6,0000.0,0005.87,0003.58,0003.27
2022-03-09 10:18:00,,0819.6,5.01,0.00,22.6,21.6,00.0,31.7,24.2,09.6,0000.0,0005.86,0003.59,0003.28
2022-03-09 10:19:00,,0819.5,5.00,0.00,22.6,21.7,00.0,31.7,24.2,09.6,0000.0,0006.07,0003.63,0003.30
2022-03-09 10:20:00,,0819.4,5.00,0.00,22.6,22.3,00.0,31.7,24.3,09.6,0000.0,0006.14,0003.66,0003.32
2022-03-09 10:21:00,,0819.4,5.01,0.00,22.8,23.1,00.0,31.7,24.6,09.5,0000.0,0006.13,0003.67,0003.34
2022-03-09 10:22:00,,0819.5,5.00,0.00,22.9,23.5,00.0,31.8,24.8,09.4,0000.0,0005.83,0003.67,0003.35
2022-03-09 10:23:00,,0819.5,5.01,0.00,22.9,23.2,00.0,31.8,24.8,09.4,0000.0,0005.80,0003.67,0003.35
2022-03-09 10:24:00,,0819.4,5.00,0.00,22.9,22.9,00.0,31.8,24.7,09.4,0000.0,0005.82,0003.67,0003.35
2022-03-09 10:25:00,,0819.3,4.99,0.00,22.8,22.5,00.0,31.8,24.6,09.4,0000.0,0005.80,0003.67,0003.35
2022-03-09 10:26:00,,0819.3,4.99,0.00,22.8,22.2,00.0,31.7,24.5,09.3,0000.0,0005.70,0003.66,0003.37
2022-03-09 10:27:00,,0819.3,5.01,0.00,22.7,21.9,00.0,31.7,24.4,09.3,0000.0,0005.66,0003.68,0003.39
2022-03-09 10:28:00,,0819.4,5.01,0.00,22.7,21.8,00.0,31.7,24.3,09.3,0000.0,0005.48,0003.69,0003.40
2022-03-09 10:29:00,,0819.4,4.99,0.00,22.6,21.7,00.0,31.7,24.3,09.2,0000.0,0005.41,0003.69,0003.39
2022-03-09 10:30:00,,0819.4,5.02,0.00,22.6,21.6,00.0,31.7,24.2,09.2,0000.0,0005.20,0003.67,0003.39
2022-03-09 10:31:00,,0819.4,4.99,0.00,22.6,21.8,00.0,31.7,24.2,09.2,0000.0,0005.18,0003.65,0003.39
2022-03-09 10:32:00,,0819.4,5.00,0.00,22.7,22.5,00.0,31.7,24.4,09.1,0000.0,0005.34,0003.65,0003.40
2022-03-09 10:33:00,,0819.4,5.00,0.00,22.8,23.1,00.0,31.7,24.7,09.0,0000.0,0005.58,0003.67,0003.40
2022-03-09 10:34:00,,0819.4,5.00,0.00,22.8,22.8,00.0,31.7,24.7,09.0,0000.0,0005.68,0003.69,0003.42
2022-03-09 10:35:00,,0819.4,5.00,0.00,22.8,22.5,00.0,31.7,24.6,08.9,0000.0,0005.60,0003.69,0003.43
2022-03-09 10:36:00,,0819.4,5.01,0.00,22.8,22.3,00.0,31.7,24.5,08.9,0000.0,0005.52,0003.68,0003.44
2022-03-09 10:37:00,,0819.4,5.00,0.00,22.7,22.1,00.0,31.7,24.4,08.9,0000.0,0005.44,0003.66,0003.42
2022-03-09 10:38:00,,0819.4,5.00,0.00,22.7,21.9,00.0,31.7,24.3,08.9,0000.0,0005.40,0003.64,0003.40
2022-03-09 10:39:00,,0819.4,5.00,0.00,22.6,21.7,00.0,31.7,24.3,08.9,0000.0,0005.46,0003.64,0003.39
2022-03-09 10:40:00,,0819.4,5.00,0.00,22.6,21.6,00.0,31.6,24.2,08.9,0000.0,0005.29,0003.62,0003.37
2022-03-09 10:41:00,,0819.4,5.01,0.00,22.5,21.5,00.0,31.6,24.1,08.9,0000.0,0005.29,0003.62,0003.36
2022-03-09 10:42:00,,0819.4,4.99,0.00,22.5,21.9,00.0,31.6,24.2,08.9,0000.0,0005.35,0003.63,0003.35
2022-03-09 10:43:00,,0819.4,5.00,0.00,22.6,22.7,00.0,31.7,24.4,08.9,0000.0,0005.14,0003.61,0003.34
2022-03-09 10:44:00,,0819.4,5.01,0.00,22.8,23.3,00.0,31.7,24.7,08.8,0000.0,0005.02,0003.60,0003.33
2022-03-09 10:45:00,,0819.4,4.99,0.00,22.8,23.2,00.0,31.7,24.7,08.8,0000.0,0005.04,0003.58,0003.29
2022-03-09 10:46:00,,0819.4,5.00,0.00,22.8,22.9,00.0,31.7,24.7,08.8,0000.0,0005.13,0003.57,0003.26
2022-03-09 10:47:00,,0819.4,5.00,0.00,22.8,22.5,00.0,31.7,24.6,08.8,0000.0,0005.30,0003.58,0003.24
2022-03-09 10:48:00,,0819.4,5.01,0.00,22.7,22.2,00.0,31.7,24.5,08.9,0000.0,0005.41,0003.58,0003.23
2022-03-09 10:49:00,,0819.3,5.00,0.00,22.7,21.9,00.0,31.7,24.4,08.9,0000.0,0005.63,0003.56,0003.22
2022-03-09 10:50:00,,0819.2,4.99,0.00,22.6,21.8,00.0,31.7,24.3,08.9,0000.0,0005.57,0003.53,0003.20
2022-03-09 10:51:00,,0819.3,5.01,0.00,22.6,21.7,00.0,31.7,24.2,08.9,0000.0,0005.57,0003.53,0003.20
2022-03-09 10:52:00,,0819.3,5.00,0.00,22.5,21.5,00.0,31.6,24.1,08.9,0000.0,0005.52,0003.53,0003.20
2022-03-09 10:53:00,,0819.3,5.01,0.00,22.5,21.8,00.0,31.6,24.1,08.9,0000.0,0005.47,0003.51,0003.19
2022-03-09 10:54:00,,0819.4,4.98,0.00,22.6,22.6,00.0,31.7,24.4,08.8,0000.0,0005.57,0003.54,0003.19
2022-03-09 10:55:00,,0819.4,5.01,0.00,22.8,23.3,00.0,31.7,24.7,08.8,0000.0,0005.40,0003.51,0003.18
2022-03-09 10:56:00,,0819.4,5.00,0.00,22.9,23.3,00.0,31.7,24.8,08.7,0000.0,0005.33,0003.50,0003.18
2022-03-09 10:57:00,,0819.4,5.00,0.00,22.8,23.0,00.0,31.7,24.7,08.7,0000.0,0005.23,0003.47,0003.16
2022-03-09 10:58:00,,0819.4,5.00,0.00,22.8,22.6,00.0,31.7,24.6,08.6,0000.0,0005.11,0003.45,0003.15
2022-03-09 10:59:00,,0819.4,5.00,0.00,22.7,22.3,00.0,31.7,24.4,08.6,0000.0,0005.16,0003.44,0003.14
